Weather History for Pittsfield, IL

Change the Weather History Date:

Monday, February 3, 2014

  Actual Average (KUIN) Record (KUIN)
Temperature  
Mean Temperature 10 °F 28 °F  
Max Temperature 24 °F 36 °F 66 °F (1992)
Min Temperature -3 °F 20 °F -18 °F (1996)
Degree Days  
Heating Degree Days 54 37  
Month to date heating degree days 112  
Since 1 July heating degree days 3498  
Cooling Degree Days 0 0  
Month to date cooling degree days 0  
Year to date cooling degree days 0  
Moisture  
Dew Point 6 °F    
Average Humidity 79    
Maximum Humidity 85    
Minimum Humidity 64    
Precipitation  
Precipitation 0.00 in 0.05 in 0.79 in (1903)
Month to date precipitation 0.15  
Year to date precipitation 1.67  
Sea Level Pressure  
Sea Level Pressure 30.36 in    
Wind  
Wind Speed 2 mph (NE)    
Max Wind Speed 7 mph    
Max Gust Speed -    
Visibility 10 miles    
Events      
T = Trace of Precipitation, MM = Missing Value Source: NWS Daily Summary

Daily Weather History Graph

Daily Weather History Graph

Search for Another Location

Airport:

Trip Planner

Search our weather history database for the weather conditions in past years. The results will help you decide how hot, cold, wet, or windy it might be!

Date:

Astronomy

Feb. 03, 2014 Rise Set
Actual Time 7:08 AM CST 5:25 PM CST
Civil Twilight 6:40 AM CST 5:53 PM CST
Nautical Twilight 6:08 AM CST 6:25 PM CST
Astronomical Twilight 5:36 AM CST 6:57 PM CST
Moon 9:12 AM CST (2/3) 10:14 PM CST (2/3)
Length of Visible Light 11h 13m
Length of Day
10h 16m
Waxing Crescent, 20% of the Moon is Illuminated
Feb 3
Waxing Crescent
Feb 6
First Quarter
Feb 14
Full
Feb 22
Last Quarter
Mar 1
New

Hourly Weather History & Observations

Time (CST) Temp. Windchill Dew Point Humidity Pressure Visibility Wind Dir Wind Speed Gust Speed Precip Events Conditions
12:15 AM 4.3 °F - 0.5 °F 84% 30.35 in 10.0 mi Calm Calm - N/A   Clear
12:35 AM 3.2 °F - -0.4 °F 85% 30.34 in 10.0 mi Calm Calm - N/A   Clear
12:55 AM 3.4 °F -4.0 °F -0.2 °F 85% 30.33 in 10.0 mi NNW 3.5 mph - N/A   Clear
1:15 AM 1.0 °F -6.7 °F -2.9 °F 83% 30.33 in 10.0 mi NW 3.5 mph - N/A   Clear
1:35 AM 0.3 °F - -3.5 °F 84% 30.34 in 10.0 mi Calm Calm - N/A   Scattered Clouds
1:55 AM -0.4 °F -8.3 °F -4.0 °F 85% 30.34 in 10.0 mi WNW 3.5 mph - N/A   Clear
2:15 AM 1.0 °F - -2.9 °F 83% 30.35 in 10.0 mi Calm Calm - N/A   Clear
2:35 AM 0.5 °F -7.3 °F -3.6 °F 83% 30.35 in 10.0 mi NNW 3.5 mph - N/A   Scattered Clouds
2:55 AM 0.5 °F -7.3 °F -4.0 °F 81% 30.36 in 10.0 mi WNW 3.5 mph - N/A   Scattered Clouds
3:15 AM 0.5 °F -7.3 °F -3.8 °F 82% 30.35 in 10.0 mi WNW 3.5 mph - N/A   Scattered Clouds
3:35 AM -0.4 °F -10.4 °F -4.5 °F 83% 30.35 in 10.0 mi WNW 4.6 mph - N/A   Scattered Clouds
3:55 AM 0.5 °F -7.3 °F -3.8 °F 82% 30.36 in 10.0 mi NW 3.5 mph - N/A   Clear
4:15 AM 0.3 °F -7.5 °F -4.0 °F 82% 30.35 in 10.0 mi NW 3.5 mph - N/A   Clear
4:35 AM -0.4 °F - -4.2 °F 84% 30.36 in 10.0 mi Calm Calm - N/A   Scattered Clouds
4:55 AM -0.9 °F -8.9 °F -5.1 °F 83% 30.37 in 10.0 mi WNW 3.5 mph - N/A   Scattered Clouds
5:15 AM -1.7 °F -9.7 °F -5.8 °F 83% 30.37 in 10.0 mi NW 3.5 mph - N/A   Scattered Clouds
5:35 AM -0.6 °F -8.5 °F -4.7 °F 83% 30.37 in 10.0 mi NNW 3.5 mph - N/A   Scattered Clouds
5:55 AM -0.8 °F - -4.9 °F 83% 30.38 in 10.0 mi Calm Calm - N/A   Scattered Clouds
6:15 AM -0.9 °F - -4.7 °F 84% 30.38 in 10.0 mi Calm Calm - N/A   Scattered Clouds
6:35 AM -0.8 °F -8.7 °F -4.5 °F 84% 30.38 in 10.0 mi North 3.5 mph - N/A   Clear
6:55 AM -3.1 °F - -7.1 °F 83% 30.37 in 10.0 mi Calm Calm - N/A   Clear
7:15 AM 1.4 °F -8.3 °F -3.3 °F 81% 30.36 in 10.0 mi NNE 4.6 mph - N/A   Clear
7:35 AM 1.9 °F - -3.1 °F 79% 30.37 in 10.0 mi Calm Calm - N/A   Clear
7:55 AM 2.3 °F -7.2 °F -2.4 °F 81% 30.37 in 10.0 mi NNE 4.6 mph - N/A   Clear
8:15 AM 3.6 °F - -1.5 °F 80% 30.39 in 10.0 mi Calm Calm - N/A   Clear
8:35 AM 4.8 °F - -0.4 °F 79% 30.40 in 10.0 mi Calm Calm - N/A   Clear
8:55 AM 8.4 °F - 3.2 °F 79% 30.41 in 10.0 mi Calm Calm - N/A   Clear
9:15 AM 10.0 °F - 3.6 °F 75% 30.41 in 10.0 mi Calm Calm - N/A   Clear
9:35 AM 9.1 °F - 3.4 °F 77% 30.43 in 10.0 mi Calm Calm - N/A   Clear
9:55 AM 10.4 °F - 4.5 °F 77% 30.42 in 10.0 mi Calm Calm - N/A   Clear
10:15 AM 10.9 °F 4.7 °F 5.0 °F 77% 30.42 in 10.0 mi SSE 3.5 mph - N/A   Clear
10:35 AM 12.7 °F 6.7 °F 5.5 °F 73% 30.42 in 10.0 mi ESE 3.5 mph - N/A   Clear
10:55 AM 13.6 °F - 5.7 °F 71% 30.42 in 10.0 mi Calm Calm - N/A   Clear
11:15 AM 14.7 °F - 7.5 °F 73% 30.41 in 10.0 mi Calm Calm - N/A   Clear
11:35 AM 16.9 °F - 9.5 °F 73% 30.39 in 10.0 mi Calm Calm - N/A   Clear
11:55 AM 17.4 °F - 10.0 °F 73% 30.38 in 10.0 mi Calm Calm - N/A   Clear
12:15 PM 17.6 °F - 11.1 °F 76% 30.36 in 10.0 mi Calm Calm - N/A   Clear
12:35 PM 19.0 °F - 10.6 °F 70% 30.36 in 10.0 mi Calm Calm - N/A   Clear
12:55 PM 20.7 °F - 12.7 °F 71% 30.35 in 10.0 mi Calm Calm - N/A   Clear
1:15 PM 20.3 °F - 13.3 °F 74% 30.35 in 10.0 mi Calm Calm - N/A   Clear
1:35 PM 20.7 °F 15.8 °F 12.7 °F 71% 30.34 in 10.0 mi South 3.5 mph - N/A   Clear
1:55 PM 20.5 °F - 12.0 °F 70% 30.34 in 10.0 mi Calm Calm - N/A   Clear
2:15 PM 20.8 °F - 12.0 °F 69% 30.34 in 10.0 mi Calm Calm - N/A   Clear
2:35 PM 21.6 °F - 11.8 °F 66% 30.34 in 10.0 mi Calm Calm - N/A   Clear
2:55 PM 22.5 °F - 12.2 °F 65% 30.33 in 10.0 mi Calm Calm - N/A   Clear
3:15 PM 22.5 °F - 12.0 °F 64% 30.35 in 10.0 mi Calm Calm - N/A   Clear
3:35 PM 24.4 °F - 15.1 °F 68% 30.35 in 10.0 mi Calm Calm - N/A   Clear
3:55 PM 23.2 °F - 16.9 °F 77% 30.34 in 10.0 mi Calm Calm - N/A   Clear
4:15 PM 22.8 °F 18.2 °F 17.2 °F 79% 30.33 in 10.0 mi East 3.5 mph - N/A   Clear
4:35 PM 22.1 °F 15.9 °F 16.5 °F 79% 30.33 in 10.0 mi NE 4.6 mph - N/A   Clear
4:55 PM 21.2 °F 14.9 °F 16.0 °F 80% 30.33 in 10.0 mi NE 4.6 mph - N/A   Clear
5:15 PM 19.8 °F 13.2 °F 14.9 °F 81% 30.33 in 10.0 mi NE 4.6 mph - N/A   Clear
5:35 PM 18.3 °F 11.5 °F 14.0 °F 83% 30.34 in 10.0 mi NE 4.6 mph - N/A   Clear
5:55 PM 17.6 °F 12.3 °F 13.5 °F 84% 30.34 in 10.0 mi East 3.5 mph - N/A   Clear
6:15 PM 16.7 °F 9.6 °F 12.9 °F 85% 30.34 in 10.0 mi East 4.6 mph - N/A   Clear
6:35 PM 17.1 °F - 12.4 °F 82% 30.35 in 10.0 mi Calm Calm - N/A   Clear
6:55 PM 17.2 °F 11.9 °F 12.6 °F 82% 30.35 in 10.0 mi East 3.5 mph - N/A   Clear
7:15 PM 16.7 °F 11.2 °F 12.6 °F 84% 30.34 in 10.0 mi ENE 3.5 mph - N/A   Clear
7:35 PM 16.5 °F 9.4 °F 12.0 °F 82% 30.35 in 10.0 mi East 4.6 mph - N/A   Clear
7:55 PM 16.3 °F 10.8 °F 11.3 °F 81% 30.34 in 10.0 mi East 3.5 mph - N/A   Clear
8:15 PM 15.8 °F 8.6 °F 11.3 °F 82% 30.34 in 10.0 mi ENE 4.6 mph - N/A   Clear
8:35 PM 15.6 °F 8.3 °F 11.3 °F 83% 30.35 in 10.0 mi East 4.6 mph - N/A   Clear
8:55 PM 15.8 °F - 11.8 °F 84% 30.35 in 10.0 mi Calm Calm - N/A   Clear
9:15 PM 15.3 °F 6.6 °F 11.3 °F 84% 30.33 in 10.0 mi ENE 5.8 mph - N/A   Clear
9:35 PM 15.3 °F 7.9 °F 10.4 °F 81% 30.33 in 10.0 mi East 4.6 mph - N/A   Clear
9:55 PM 14.9 °F 5.0 °F 9.5 °F 79% 30.31 in 10.0 mi East 6.9 mph - N/A   Clear
10:15 PM 14.9 °F - 10.2 °F 82% 30.33 in 10.0 mi Calm Calm - N/A   Clear
10:35 PM 14.9 °F 9.2 °F 10.4 °F 82% 30.33 in 10.0 mi East 3.5 mph - N/A   Clear
10:55 PM 14.7 °F - 10.2 °F 82% 30.33 in 10.0 mi Calm Calm - N/A   Clear
11:15 PM 14.2 °F 8.4 °F 10.2 °F 84% 30.33 in 10.0 mi NE 3.5 mph - N/A   Clear
11:35 PM 14.9 °F - 10.8 °F 84% 30.34 in 10.0 mi Calm Calm - N/A   Clear
11:55 PM 14.9 °F 7.5 °F 10.8 °F 84% 30.32 in 10.0 mi NE 4.6 mph - N/A   Clear